Weather History for Elefsis, Greece

Change the Weather History Date:

Monday, July 1, 2013

  Actual Average Record
Temperature  
Mean Temperature 76 °F -  
Max Temperature 87 °F 90 °F 97 °F (2014)
Min Temperature 64 °F 72 °F 64 °F (2013)
Cooling Degree Days 10    
Growing Degree Days 26 (Base 50)    
Moisture  
Dew Point 51 °F    
Average Humidity 43    
Maximum Humidity 69    
Minimum Humidity 19    
Precipitation  
Precipitation 0.00 in - - ()
Sea Level Pressure  
Sea Level Pressure 29.94 in    
Wind  
Wind Speed 5 mph ()    
Max Wind Speed 17 mph    
Max Gust Speed 25 mph    
Visibility 6.2 miles    
Events      
Averages and records for this station are not official NWS values.
T = Trace of Precipitation, MM = Missing Value Source: Averaged Metar Reports

Daily Weather History Graph

Daily Weather History Graph

Search for Another Location

Airport:

Trip Planner

Search our weather history database for the weather conditions in past years. The results will help you decide how hot, cold, wet, or windy it might be!

Date:

Astronomy

Jul. 01, 2013 Rise Set
Actual Time 6:06 AM EEST 8:52 PM EEST
Civil Twilight 5:35 AM EEST 9:23 PM EEST
Nautical Twilight 4:56 AM EEST 10:03 PM EEST
Astronomical Twilight 4:11 AM EEST 10:47 PM EEST
Moon 1:22 AM EEST (7/1) 2:52 PM EEST (7/1)
Length of Visible Light 15h 48m
Length of Day
14h 45m
Last Quarter, 38% of the Moon is Illuminated
Jul 1
Last Quarter
Jul 8
New
Jul 16
First Quarter
Jul 22
Full
Jul 29
Last Quarter

Hourly Weather History & Observations

Time (EEST) Temp. Heat Index Dew Point Humidity Pressure Visibility Wind Dir Wind Speed Gust Speed Precip Events Conditions
12:50 AM 73.4 °F - 53.6 °F 50% 29.89 in - Calm Calm - N/A   Clear
1:50 AM 71.6 °F - 53.6 °F 53% 29.89 in - Calm Calm - N/A   Clear
2:50 AM 69.8 °F - 55.4 °F 60% 29.89 in - Calm Calm - N/A   Clear
3:50 AM 68.0 °F - 55.4 °F 64% 29.89 in - Calm Calm - N/A   Clear
4:50 AM 66.2 °F - 55.4 °F 68% 29.89 in - Calm Calm - N/A   Clear
5:50 AM 66.2 °F - 53.6 °F 64% 29.89 in - Calm Calm - N/A   Clear
6:20 AM 64.4 °F - 53.6 °F 68% 29.89 in - Calm Calm - N/A   Clear
6:50 AM 66.2 °F - 53.6 °F 64% 29.92 in - Calm Calm - N/A   Clear
7:20 AM 71.6 °F - 50.0 °F 46% 29.92 in - Calm Calm - N/A   Clear
7:50 AM 73.4 °F - 48.2 °F 41% 29.92 in - NNW 5.8 mph - N/A   Clear
8:20 AM 75.2 °F - 46.4 °F 36% 29.92 in - WNW 6.9 mph - N/A   Clear
8:50 AM 77.0 °F - 44.6 °F 32% 29.95 in - NNW 9.2 mph - N/A   Clear
9:20 AM 78.8 °F - 44.6 °F 30% 29.95 in - WNW 10.4 mph - N/A   Clear
9:50 AM 80.6 °F - 44.6 °F 28% 29.95 in - NNW 12.7 mph - N/A   Clear
10:20 AM 80.6 °F - 42.8 °F 26% 29.95 in - NNW 13.8 mph - N/A   Clear
10:50 AM 82.4 °F - 42.8 °F 25% 29.95 in - NNW 10.4 mph - N/A   Clear
11:20 AM 84.2 °F - 42.8 °F 23% 29.95 in - NNW 11.5 mph - N/A   Clear
11:50 AM 84.2 °F - 42.8 °F 23% 29.95 in - NNW 12.7 mph 25.3 mph N/A   Clear
12:20 PM 84.2 °F - 42.8 °F 23% 29.95 in - North 11.5 mph 23.0 mph N/A   Clear
12:50 PM 84.2 °F - 42.8 °F 23% 29.95 in - North 11.5 mph 23.0 mph N/A   Clear
1:20 PM 86.0 °F - 41.0 °F 20% 29.95 in - North 11.5 mph 23.0 mph N/A   Clear
1:50 PM 86.0 °F - 42.8 °F 22% 29.95 in 6.2 mi North 10.4 mph - N/A   Partly Cloudy
2:20 PM 87.8 °F - 42.8 °F 21% 29.95 in 6.2 mi North 11.5 mph - N/A   Partly Cloudy
2:50 PM 87.8 °F - 42.8 °F 21% 29.92 in 6.2 mi North 9.2 mph - N/A   Partly Cloudy
3:20 PM 87.8 °F - 41.0 °F 19% 29.92 in 6.2 mi North 10.4 mph - N/A   Partly Cloudy
3:50 PM 87.8 °F - 42.8 °F 21% 29.92 in 6.2 mi North 9.2 mph - N/A   Partly Cloudy
4:20 PM 87.8 °F - 44.6 °F 22% 29.92 in 6.2 mi NNE 8.1 mph - N/A   Partly Cloudy
5:50 PM 87.8 °F - 44.6 °F 22% 29.92 in 6.2 mi ENE 4.6 mph - N/A   Partly Cloudy
6:20 PM 82.4 °F 82.5 °F 59.0 °F 45% 29.92 in 6.2 mi South 17.3 mph - N/A   Partly Cloudy
6:50 PM 80.6 °F 80.8 °F 57.2 °F 45% 29.95 in 6.2 mi South 16.1 mph - N/A   Partly Cloudy
7:20 PM 80.6 °F 80.8 °F 57.2 °F 45% 29.95 in 6.2 mi South 13.8 mph - N/A   Partly Cloudy
7:50 PM 78.8 °F - 59.0 °F 51% 29.95 in - South 11.5 mph - N/A   Clear
8:20 PM 78.8 °F - 59.0 °F 51% 29.98 in - South 9.2 mph - N/A   Clear
8:50 PM 77.0 °F - 60.8 °F 57% 29.98 in - South 10.4 mph - N/A   Clear
9:20 PM 75.2 °F - 62.6 °F 65% 29.98 in - South 5.8 mph - N/A   Clear
9:50 PM 75.2 °F - 62.6 °F 65% 29.98 in - South 5.8 mph - N/A   Clear
10:20 PM 75.2 °F - 60.8 °F 61% 30.01 in - South 4.6 mph - N/A   Clear
10:50 PM 73.4 °F - 62.6 °F 69% 30.01 in - Calm Calm - N/A   Clear
11:20 PM 73.4 °F - 60.8 °F 65% 30.01 in - Calm Calm - N/A   Clear
11:50 PM 71.6 °F - 60.8 °F 69% 30.01 in - Calm Calm - N/A   Clear